DELTA 1 DEB, 13525

Orbit data source: Space-Track

DELTA 1 DEB, 13525 is space debris in SSO originally from a launch on Tue, 06 Nov 1973 UTC launched from the Air Force Western Test Range (AFWTR). Debris objects in space refer to the collection of defunct objects orbiting the Earth. Examples of debris include non-operational satellites, rocket bodies, and fragments generated from explosions, collisions, or faulty payload assembly.

Loading next visibility...
Identifier
13525, 1973-086GN
Orbit
SSO
Country
Flag of USUS
Related business
Manufacturer
Unknown
Mission
Spacecraft
Bus & Motor
Unknown
Mass
Unknown
Launch date (UTC)
1973-11-06 (53 years ago)
Launch vehicle
Unknown
Launch site
Air Force Western Test Range (AFWTR)
Object type
Payload
Rocket body
Debris
Shape & HBR
Unknown shape, 0.1 m
Radar Cross Section
Medium (>0.1 m² and <1 m²)

Expand to show TLE details & history
Last TLE update: 2 days ago

TLE from 2 days ago
0 DELTA 1 DEB
1 13525U 73086GN  26254.44366427  .00000013  00000-0  37438-3 0  9997
2 13525 101.9589 233.0995 0076852 184.4186 328.0784 12.51233894107639
Epoch: 2026-09-11T10:38Z
TLE epoch observation values (Epoch: 2026-09-11T10:38:52.592Z)
Latitude
27.35334°
Longitude
-90.8272°
Altitude
1,411.383 km
Speed
7.18 km/s
True Right ascension
03h 57m 26s
True Declination
27° 13' 30"
Sunlit
Object was in daylight at epoch
Visualization orbit readout
Latitude
Unknown
Longitude
Unknown
Altitude
Unknown
Speed
Unknown
Apparent Right ascension
Unknown
Apparent Declination
Unknown
Sunlit
N/A
Visualization observer readout
Local Sidereal Time
21:42:27
Azimuth
Unknown
Elevation
Unknown
Doppler factor
Unknown
Orbital elements
Apogee altitude
1,517.109 km
Perigee altitude
1,396.682 km
Semi-major axis
7,835.033 km
Eccentricity
0.00769
Inclination
101.9589°
RAAN
233.0995°
Arg. of periapsis
184.4186°
True anomaly
327.60892°
Mean anomaly
328.0784°
Eccentric anomaly
327.84405°
Mean motion
3.12955 °/min
Orbital period
115.03 mins
BSTAR
0.00037438
Loading maneuver chart data...
Computing Atmospheric mass density...
Loading historical data...
Loading historical data...
Loading historical data...
Loading historical data...
Loading historical data...
Loading historical data...
Loading historical data...

Documentation

Showing up to 5 results
|